Grand Island, NE

11:55 PM CST on December 12, 2017 (GMT -0600)
Central Nebraska Regional

Weather History for KGRI - December, 2013

Change the Weather History Date:

Thursday, December 19, 2013

  Actual Average Record
Temperature  
Mean Temperature 23 °F 26 °F  
Max Temperature 35 °F 36 °F 61 °F (1966)
Min Temperature 11 °F 16 °F -19 °F (1989)
Degree Days  
Heating Degree Days 42 39  
Month to date heating degree days 767 710  
Since 1 July heating degree days 1995 2040  
Cooling Degree Days 0 0  
Month to date cooling degree days 0 0  
Year to date cooling degree days 1265 1034  
Moisture  
Dew Point 17 °F    
Average Humidity 74    
Maximum Humidity 84    
Minimum Humidity 63    
Precipitation  
Precipitation T in 0.02 in 1.04 in (2012)
Month to date precipitation 0.10 0.42  
Year to date precipitation 26.91 26.45  
Snow  
Snow T in 0.20 in 7.00 in (1952)
Month to date snowfall 2.1 3.0  
Since 1 July snowfall 2.3 7.2  
Snow Depth 0.00 in    
Sea Level Pressure  
Sea Level Pressure 29.86 in    
Wind  
Wind Speed 15 mph (NNE)    
Max Wind Speed 24 mph    
Max Gust Speed 30 mph    
Visibility 9 miles    
Events Snow    
T = Trace of Precipitation, MM = Missing Value Source: NWS Daily Summary

Daily Weather History Graph

Daily Weather History Graph

Search for Another Location

Airport or City:

Trip Planner

Search our weather history database for the weather conditions in past years. The results will help you decide how hot, cold, wet, or windy it might be!

Date:

Astronomy

Dec. 19, 2013 Rise Set
Actual Time 7:53 AM CST 5:07 PM CST
Civil Twilight 7:22 AM CST 5:38 PM CST
Nautical Twilight 6:47 AM CST 6:13 PM CST
Astronomical Twilight 6:14 AM CST 6:46 PM CST
Moon 7:35 PM CST (12/19) 9:12 AM CST (12/19)
Length of Visible Light 10h 16m
Length of Day
9h 13m
Waning Gibbous, 95% of the Moon is Illuminated
Dec 19
Waning Gibbous
Dec 25
Last Quarter
Jan 1
New
Jan 7
First Quarter
Jan 15
Full

Hourly Weather History & Observations

Time (CST) Temp. Windchill Dew Point Humidity Pressure Visibility Wind Dir Wind Speed Gust Speed Precip Events Conditions
12:53 AM 28.9 °F 25.2 °F 21.9 °F 75% 29.75 in 10.0 mi NNW 3.5 mph - N/A   Clear
1:53 AM 32.0 °F 24.2 °F 24.1 °F 73% 29.75 in 10.0 mi North 9.2 mph - N/A   Clear
2:53 AM 32.0 °F 25.6 °F 25.0 °F 75% 29.76 in 10.0 mi North 6.9 mph - N/A   Clear
3:53 AM 33.1 °F 28.7 °F 26.1 °F 75% 29.77 in 10.0 mi NNE 4.6 mph - N/A   Clear
4:53 AM 34.0 °F 26.6 °F 27.0 °F 75% 29.76 in 10.0 mi NNE 9.2 mph - N/A   Clear
5:53 AM 34.0 °F 25.5 °F 27.0 °F 75% 29.81 in 10.0 mi NNE 11.5 mph - N/A   Clear
6:53 AM 33.1 °F 23.0 °F 26.1 °F 75% 29.81 in 10.0 mi NNE 15.0 mph - N/A   Clear
7:53 AM 32.0 °F 21.6 °F 26.1 °F 79% 29.83 in 10.0 mi NNE 15.0 mph - N/A   Clear
8:53 AM 30.0 °F 18.3 °F 24.1 °F 79% 29.85 in 10.0 mi NE 17.3 mph - N/A   Clear
9:53 AM 28.9 °F 16.9 °F 21.9 °F 75% 29.86 in 10.0 mi NNE 17.3 mph 24.2 mph N/A   Clear
10:53 AM 28.9 °F 16.9 °F 21.0 °F 72% 29.87 in 10.0 mi NNE 17.3 mph 25.3 mph N/A   Clear
11:53 AM 30.9 °F 19.8 °F 21.0 °F 67% 29.85 in 10.0 mi NNE 16.1 mph - N/A   Clear
12:53 PM 30.9 °F 19.8 °F 21.0 °F 67% 29.82 in 10.0 mi NNE 16.1 mph - N/A   Partly Cloudy
1:07 PM 28.9 °F 16.9 °F 19.9 °F 69% 29.75 in 10.0 mi NNE 17.3 mph - N/A   Mostly Cloudy
1:49 PM 30.2 °F 18.1 °F 19.4 °F 64% 29.72 in 10.0 mi NE 18.4 mph 23.0 mph N/A   Scattered Clouds
1:53 PM 30.0 °F 18.3 °F 19.9 °F 66% 29.76 in 10.0 mi NE 17.3 mph 23.0 mph N/A   Scattered Clouds
2:35 PM 28.0 °F 16.5 °F 18.0 °F 66% 29.75 in 10.0 mi North 15.0 mph - N/A   Mostly Cloudy
2:53 PM 28.0 °F 16.5 °F 18.0 °F 66% 29.79 in 10.0 mi NE 15.0 mph - N/A   Overcast
3:53 PM 24.1 °F 10.1 °F 15.1 °F 69% 29.83 in 10.0 mi NNE 18.4 mph - N/A   Overcast
4:53 PM 23.0 °F 9.2 °F 14.0 °F 68% 29.86 in 10.0 mi NNE 17.3 mph - N/A   Overcast
5:53 PM 19.0 °F 2.0 °F 10.0 °F 68% 29.89 in 10.0 mi North 23.0 mph 28.8 mph N/A   Overcast
6:53 PM 15.1 °F -2.5 °F 8.1 °F 74% 29.94 in 9.0 mi North 20.7 mph 27.6 mph N/A   Overcast
7:27 PM 14.0 °F -3.0 °F 8.1 °F 77% 29.88 in 8.0 mi North 18.4 mph - 0.00 in Snow Light Snow
7:53 PM 14.0 °F -3.0 °F 8.1 °F 77% 29.97 in 6.0 mi North 18.4 mph - 0.00 in Snow Light Snow
8:53 PM 12.0 °F -5.6 °F 8.1 °F 84% 30.00 in 3.0 mi North 18.4 mph - 0.00 in Snow Light Snow
9:53 PM 12.0 °F -6.0 °F 8.1 °F 84% 30.01 in 2.5 mi North 19.6 mph - 0.00 in Snow Light Snow
10:03 PM 12.0 °F -6.5 °F 7.0 °F 80% 29.94 in 3.0 mi North 20.7 mph 25.3 mph 0.00 in Snow Light Snow
10:53 PM 10.9 °F -8.3 °F 7.0 °F 84% 30.03 in 4.0 mi NNW 21.9 mph - 0.00 in Snow Light Snow
11:53 PM 10.9 °F -7.5 °F 6.1 °F 81% 30.03 in 4.0 mi North 19.6 mph 27.6 mph 0.00 in Snow Light Snow